This demonstration page uses our WeatherBlox Daily Observations layout. Learn more.

Left ArrowRight Arrow

36.17497, -115.13722

Hourly Observations for May 5, 2016

Temp ( °F °C ) Dew Point ( °F °C ) Humidity (%) Winds ( mph kmh ) Pressure ( in mb ) Visibility ( mi km ) Precip ( " mm )
12:53 am 00:53 Clear 77 25 29 -1.7 17 17 SSW 8 13 29.75 1007 10 16 N/A
1:53 am 01:53 Clear 74 23.3 30 -1.1 20 20 ESE 3 6 29.73 1007 10 16 N/A
2:53 am 02:53 Clear 71 21.7 32 undefined 24 24 SSE 3 6 29.72 1007 10 16 N/A
3:53 am 03:53 Clear 70 21.1 33 0.6 26 26 SSW 3 6 29.74 1007 10 16 N/A
4:53 am 04:53 Clear 68 20 35 1.7 30 30 N N/A 29.75 1007 10 16 N/A
5:53 am 05:53 Sunny 67 19.4 36 2.2 32 32 N N/A 29.77 1008 10 16 N/A
6:53 am 06:53 Sunny 70 21.1 33 0.6 26 26 ESE 8 13 29.78 1009 10 16 N/A
7:53 am 07:53 Sunny 73 22.8 34 1.1 24 24 SE 9 15 29.79 1009 10 16 N/A
8:53 am 08:53 Sunny 75 23.9 34 1.1 22 22 SSE 16 26 29.80 1009 10 16 N/A
9:53 am 09:53 Sunny 76 24.4 34 1.1 22 22 SE 12 19 29.80 1009 10 16 N/A
10:53 am 10:53 Sunny 78 25.6 32 undefined 19 19 SE 9 15 29.79 1009 10 16 N/A
11:53 am 11:53 Sunny 81 27.2 25 -3.9 13 13 S 22 35 29.77 1008 10 16 N/A
12:53 pm 12:53 Sunny 83 28.3 23 -5 11 11 SSE 20 31 29.74 1007 10 16 N/A
1:53 pm 13:53 Sunny 83 28.3 19 -7.2 9 9 S 20 31 29.72 1006 10 16 N/A
2:53 pm 14:53 Sunny 84 28.9 19 -7.2 9 9 SSE 21 33 29.69 1006 10 16 N/A
3:53 pm 15:53 Sunny 84 28.9 16 -8.9 8 8 S 22 35 29.67 1005 10 16 N/A
4:53 pm 16:53 Sunny 83 28.3 18 -7.8 9 9 S 23 37 29.65 1004 10 16 N/A
5:53 pm 17:53 Sunny 81 27.2 22 -5.6 11 11 S 23 37 29.64 1004 10 16 N/A
6:53 pm 18:53 Sunny 80 26.7 24 -4.4 13 13 SSW 14 22 29.63 1004 10 16 N/A
7:53 pm 19:53 Clear 78 25.6 24 -4.4 13 13 SSW 12 19 29.64 1004 10 16 N/A
8:53 pm 20:53 Clear 77 25 25 -3.9 14 14 S 13 20 29.65 1004 10 16 N/A
9:53 pm 21:53 Clear 75 23.9 28 -2.2 18 18 SW 9 15 29.66 1004 10 16 N/A
10:53 pm 22:53 Clear 73 22.8 32 undefined 22 22 SSW 12 19 29.65 1004 10 16 N/A
11:53 pm 23:53 Clear 70 21.1 35 1.7 28 28 S 13 20 29.66 1004 10 16 N/A

Powered by AerisWeather